GEFSSGP_prec_meanprecacc_276.txt.gz
Total_Precipitation_Accumulation
0.09 0.23 0.46 0.82 1.35 1.95 2.14 1.55 1.15 0.99 0.86 0.79 0.65 0.59 0.68 0.94 1.23 1.93 1.91 1.63 1.14 1.02 1.09 1.13 1.12 0.90 0.80 0.82 0.84 0.84 0.84 0.81 0.74 0.81 0.98 1.15 1.38 1.53 1.52 1.51 1.75 2.05 2.11 2.04 1.98 1.68 1.45 1.39 1.25
0.15 0.28 0.52 0.95 1.74 2.48 2.25 1.38 1.02 0.93 0.75 0.67 0.64 0.62 0.73 0.88 0.91 1.18 1.54 1.39 0.93 0.79 0.81 0.76 0.84 0.81 0.75 0.75 0.73 0.73 0.75 0.75 0.74 0.83 0.99 1.15 1.29 1.46 1.57 1.64 1.90 2.10 2.00 1.95 1.68 1.40 1.23 1.15 1.03
0.27 0.41 0.57 1.00 1.49 2.08 1.81 1.22 0.84 0.75 0.66 0.70 0.85 0.77 0.96 1.20 1.22 1.40 1.32 1.05 0.82 0.71 0.68 0.79 0.80 0.74 0.71 0.67 0.69 0.69 0.73 0.74 0.77 0.84 0.95 1.09 1.28 1.48 1.62 1.62 1.81 1.84 1.70 1.62 1.46 1.31 1.11 0.99 0.91
0.27 0.49 0.61 0.87 1.02 1.00 1.09 1.10 0.78 0.83 0.83 0.73 0.82 1.09 1.22 1.26 1.26 1.38 1.29 1.06 0.77 0.71 0.68 0.76 0.79 0.72 0.73 0.65 0.61 0.65 0.69 0.75 0.79 0.90 1.01 1.11 1.34 1.48 1.52 1.58 1.77 1.68 1.60 1.51 1.39 1.20 0.99 0.86 0.82
0.20 0.43 0.70 0.85 0.97 0.84 0.83 0.86 0.72 0.76 0.80 0.79 0.83 1.30 1.62 1.53 1.19 1.16 1.15 1.06 0.82 0.92 0.89 0.82 0.85 0.82 0.75 0.64 0.59 0.63 0.68 0.75 0.79 0.91 1.02 1.09 1.24 1.30 1.38 1.56 1.68 1.56 1.49 1.35 1.23 1.08 0.90 0.88 0.92
0.17 0.39 0.71 0.79 0.86 0.71 0.71 0.72 0.66 0.71 0.79 0.87 1.04 1.46 1.89 1.77 1.50 1.39 1.31 1.15 0.93 0.96 0.99 0.96 1.00 0.95 0.88 0.71 0.64 0.69 0.76 0.82 0.85 0.89 0.95 1.01 1.08 1.12 1.28 1.54 1.61 1.46 1.27 1.16 1.15 1.06 0.93 0.91 0.97
0.13 0.29 0.59 0.64 0.75 0.75 0.68 0.58 0.63 0.81 1.06 1.13 1.22 1.61 1.92 2.25 2.03 1.73 1.65 1.51 1.24 1.13 1.09 1.06 1.04 0.91 0.93 0.90 0.78 0.82 0.92 0.95 0.92 0.90 0.93 0.97 1.03 1.13 1.30 1.59 1.62 1.41 1.17 1.07 1.06 1.03 0.95 0.87 0.94
0.10 0.19 0.35 0.52 0.62 0.70 0.59 0.53 0.53 0.70 1.09 1.07 1.11 1.43 1.94 1.95 1.94 2.13 2.07 2.05 1.74 1.53 1.31 1.18 1.22 1.20 1.05 1.00 0.95 1.04 1.11 1.12 1.10 1.03 1.08 1.14 1.23 1.29 1.50 1.65 1.58 1.39 1.21 1.11 1.05 1.02 0.94 0.92 0.95
0.08 0.19 0.26 0.41 0.49 0.49 0.40 0.41 0.44 0.60 0.79 0.96 1.14 1.20 1.45 1.40 1.62 2.05 2.30 2.51 2.42 1.89 1.64 1.40 1.29 1.25 1.17 1.10 1.16 1.44 1.44 1.38 1.35 1.37 1.41 1.46 1.66 1.81 2.03 1.82 1.71 1.52 1.40 1.40 1.33 1.32 1.21 1.12 1.05
0.08 0.18 0.19 0.22 0.30 0.30 0.27 0.30 0.36 0.64 1.09 1.47 1.58 1.47 1.44 1.49 1.86 2.19 2.25 2.29 2.47 2.06 1.72 1.66 1.54 1.38 1.27 1.11 1.24 1.66 1.54 1.49 1.62 1.76 1.70 1.92 2.30 2.58 2.25 2.14 2.11 2.07 2.01 1.92 1.94 2.00 1.64 1.36 1.47
0.05 0.09 0.13 0.17 0.20 0.20 0.23 0.29 0.34 0.60 1.15 1.52 1.66 1.66 1.69 1.69 2.07 2.44 2.57 2.36 2.41 2.27 1.92 1.82 1.70 1.61 1.60 1.70 1.51 1.64 1.75 1.85 1.95 1.98 2.08 2.27 2.33 2.49 2.49 2.45 2.48 2.52 2.38 2.25 2.49 2.47 1.92 1.99 2.41
0.03 0.04 0.09 0.14 0.17 0.21 0.21 0.26 0.43 0.62 0.99 1.29 1.34 1.73 1.95 1.90 2.26 2.51 2.62 2.71 2.61 2.50 2.20 1.98 1.83 1.83 1.92 1.87 1.83 1.75 1.83 1.88 2.08 2.28 2.28 2.53 2.89 2.96 2.95 2.87 2.72 2.78 2.79 3.01 2.99 3.08 2.64 2.63 2.48
0.02 0.04 0.07 0.10 0.15 0.19 0.23 0.27 0.33 0.65 0.83 1.06 1.27 1.63 1.85 1.89 2.27 2.60 2.88 2.96 2.94 2.65 2.33 2.28 2.01 1.95 2.01 2.17 2.29 2.04 2.26 2.29 2.36 2.58 2.73 2.85 3.15 3.19 3.16 3.07 3.06 2.77 2.87 3.05 3.42 3.32 3.50 3.46 3.06
0.02 0.04 0.08 0.10 0.13 0.18 0.32 0.42 0.43 0.80 0.85 1.00 1.27 1.70 1.78 1.79 2.04 2.06 2.43 2.76 2.88 2.62 2.43 2.36 2.24 2.29 2.37 2.40 2.51 2.62 2.78 2.88 2.82 2.85 2.97 3.04 3.23 3.51 3.50 3.39 3.32 2.99 2.89 3.18 3.52 3.51 3.99 3.87 3.69
0.04 0.09 0.14 0.16 0.19 0.25 0.37 0.63 0.68 0.89 0.96 1.19 1.26 1.44 1.60 1.60 1.75 1.94 2.20 2.52 2.62 2.40 2.47 2.60 2.72 2.93 3.02 3.04 3.03 3.01 3.14 3.16 3.29 3.57 3.67 3.69 3.57 3.68 3.57 3.50 3.33 3.26 3.22 3.40 3.48 3.60 4.01 3.76 3.70
0.08 0.18 0.29 0.30 0.28 0.32 0.53 1.11 1.01 1.05 1.04 1.12 1.14 1.31 1.40 1.46 1.63 1.97 2.11 2.35 2.51 2.41 2.52 2.76 2.84 3.24 3.43 3.52 3.64 3.57 3.53 3.51 3.77 3.98 4.15 4.08 3.89 3.71 3.76 3.50 3.26 3.39 3.38 3.59 3.88 3.87 3.95 4.06 3.98
0.14 0.21 0.30 0.36 0.26 0.27 0.48 0.91 0.87 0.96 1.16 1.07 1.07 1.14 1.19 1.26 1.39 1.62 1.88 2.13 2.43 2.77 3.05 3.38 3.46 3.44 3.56 3.79 3.96 3.75 3.73 3.70 3.71 3.77 4.00 3.93 3.66 3.51 3.81 3.61 3.58 3.58 3.79 3.71 3.42 3.97 4.17 4.16 4.06
0.12 0.20 0.27 0.31 0.30 0.27 0.41 0.63 0.80 0.91 1.02 1.11 1.12 1.21 1.30 1.42 1.68 1.88 2.21 2.40 2.64 3.15 3.53 3.76 3.81 4.05 4.37 4.58 4.48 4.24 3.87 3.62 3.52 3.51 3.59 3.55 3.50 3.39 3.68 3.46 3.44 3.66 4.04 4.13 4.03 4.27 4.20 4.05 4.11
0.11 0.21 0.26 0.27 0.33 0.37 0.46 0.53 0.84 1.09 1.19 1.33 1.51 1.75 1.91 2.08 2.16 2.35 2.73 2.98 3.14 3.20 3.40 3.73 4.17 4.55 4.67 4.49 4.41 4.38 4.14 3.83 3.46 3.24 3.24 3.31 3.16 3.22 3.59 3.28 3.69 3.77 3.97 4.13 4.10 4.32 4.25 4.03 4.16
0.13 0.22 0.29 0.33 0.36 0.37 0.53 0.64 0.88 1.33 1.48 1.44 1.50 1.52 1.56 2.00 2.20 2.42 2.76 2.90 2.85 2.99 3.28 3.72 4.18 4.51 4.41 4.52 4.74 4.70 4.49 3.81 3.45 3.32 3.23 3.13 3.02 2.99 3.12 3.66 3.64 3.78 3.99 4.03 4.00 4.08 3.88 3.62 3.97
0.15 0.19 0.25 0.31 0.43 0.43 0.55 0.97 1.15 1.44 1.58 1.46 1.41 1.42 1.38 1.57 1.87 2.01 2.21 2.37 2.60 3.02 3.47 3.80 4.10 4.24 4.25 4.45 4.59 4.31 4.11 3.62 3.48 3.46 3.29 3.13 3.12 3.10 3.23 3.49 3.58 3.66 3.56 3.80 3.99 3.80 3.74 3.63 3.69
0.17 0.16 0.18 0.26 0.43 0.59 0.65 1.29 1.58 1.77 1.65 1.38 1.39 1.44 1.54 1.66 1.75 1.87 1.90 2.20 2.58 3.01 3.59 4.00 4.03 4.09 3.94 4.05 4.17 4.01 3.68 3.44 3.34 3.32 3.09 2.97 2.90 2.89 3.01 3.17 3.36 3.52 3.45 3.61 3.49 3.52 3.66 3.68 3.52
0.14 0.13 0.15 0.24 0.37 0.59 0.72 1.12 1.59 1.69 1.59 1.29 1.20 1.40 1.63 1.61 1.67 1.90 1.85 2.04 2.31 2.73 3.13 3.54 3.90 3.94 3.73 3.65 3.70 3.85 3.69 3.41 3.20 3.10 3.01 2.94 2.91 2.72 2.71 2.92 3.16 3.32 3.21 3.17 3.37 3.66 3.59 3.48 3.44
0.10 0.13 0.22 0.35 0.58 0.97 0.76 0.87 1.29 1.54 1.43 1.18 1.19 1.32 1.49 1.66 1.67 1.83 2.08 2.13 2.27 2.54 2.88 3.18 3.39 3.36 3.28 3.23 3.26 3.39 3.47 3.44 3.19 2.99 3.02 2.97 2.83 2.67 2.60 2.70 3.03 3.14 3.07 3.02 3.12 3.21 3.25 3.28 3.44
0.12 0.23 0.62 1.03 1.33 1.17 0.79 0.87 1.22 1.17 1.01 0.92 1.00 1.27 1.52 1.79 1.81 1.85 2.03 2.14 2.24 2.34 2.52 2.66 2.73 2.76 2.73 2.76 2.73 2.73 2.88 2.96 2.85 2.76 2.83 2.84 2.72 2.60 2.58 2.57 2.72 2.66 2.65 2.75 2.97 3.00 2.93 2.98 3.11
0.16 0.27 0.66 0.91 1.06 1.00 0.93 1.13 1.20 0.96 0.82 0.83 0.91 1.10 1.40 1.58 1.62 1.73 1.81 1.75 1.76 1.81 1.94 2.10 2.19 2.20 2.16 2.24 2.33 2.35 2.55 2.57 2.59 2.72 2.62 2.65 2.59 2.55 2.50 2.43 2.37 2.30 2.33 2.39 2.71 2.81 2.75 2.82 2.82
0.23 0.29 0.31 0.51 0.64 1.01 1.22 1.32 1.21 0.88 1.00 1.00 1.08 1.14 1.20 1.26 1.32 1.34 1.37 1.42 1.53 1.57 1.64 1.77 1.87 1.87 1.79 1.85 2.02 2.09 2.16 2.28 2.39 2.50 2.41 2.29 2.31 2.19 2.25 2.24 2.16 2.10 2.20 2.33 2.43 2.43 2.43 2.54 2.51
0.24 0.37 0.50 0.73 0.98 1.16 1.30 1.54 1.72 1.52 1.42 1.29 1.40 1.62 1.37 1.11 1.15 1.19 1.18 1.22 1.25 1.30 1.42 1.58 1.68 1.81 1.81 1.77 1.82 1.79 1.89 2.00 2.19 2.27 2.16 2.17 2.25 2.19 2.12 2.06 1.98 1.98 2.02 2.08 2.21 2.17 2.23 2.23 2.22
0.36 0.45 0.55 0.69 0.80 1.08 1.43 1.60 1.39 1.53 1.48 1.41 1.39 1.44 1.32 1.01 0.93 1.03 0.98 1.01 1.07 1.13 1.24 1.40 1.68 1.83 1.76 1.61 1.67 1.77 1.75 1.82 1.94 2.00 1.94 2.03 2.14 2.27 2.24 2.16 2.10 1.96 1.89 1.95 2.02 1.92 2.04 2.06 2.07
0.30 0.44 0.55 0.71 0.80 0.90 1.15 1.40 1.01 1.16 1.14 1.11 1.17 1.04 0.96 0.90 0.74 0.86 0.91 0.86 0.90 0.95 1.06 1.25 1.47 1.64 1.65 1.60 1.62 1.74 1.81 1.79 1.76 1.74 1.77 1.83 1.86 1.93 1.95 1.91 1.90 1.90 1.97 2.06 1.97 1.91 1.93 2.01 1.97

GEFSSGP_prec_meanprecacc_282.txt.gz
Total_Precipitation_Accumulation
0.10 0.23 0.46 0.82 1.36 1.96 2.16 1.58 1.20 1.04 0.91 0.82 0.68 0.61 0.69 0.96 1.25 1.97 1.99 1.72 1.19 1.10 1.21 1.22 1.20 0.97 0.85 0.87 0.89 0.89 0.89 0.87 0.80 0.88 1.05 1.23 1.49 1.65 1.65 1.71 1.95 2.24 2.28 2.17 2.11 1.83 1.57 1.48 1.32
0.16 0.29 0.53 0.96 1.74 2.49 2.27 1.42 1.08 0.98 0.78 0.69 0.65 0.63 0.74 0.89 0.93 1.22 1.61 1.45 0.98 0.86 0.88 0.82 0.91 0.88 0.81 0.80 0.79 0.79 0.81 0.81 0.81 0.90 1.06 1.22 1.38 1.58 1.70 1.82 2.04 2.23 2.12 2.06 1.80 1.53 1.35 1.23 1.10
0.28 0.41 0.58 1.01 1.50 2.10 1.84 1.28 0.90 0.78 0.68 0.72 0.86 0.79 0.97 1.23 1.24 1.44 1.36 1.08 0.87 0.77 0.72 0.85 0.87 0.80 0.77 0.73 0.77 0.78 0.81 0.80 0.83 0.89 1.01 1.16 1.37 1.59 1.73 1.74 1.93 1.96 1.81 1.73 1.57 1.42 1.20 1.05 0.97
0.27 0.49 0.61 0.88 1.03 1.02 1.12 1.14 0.81 0.84 0.84 0.74 0.83 1.10 1.24 1.29 1.28 1.41 1.32 1.09 0.80 0.75 0.73 0.81 0.85 0.79 0.79 0.73 0.69 0.74 0.77 0.81 0.85 0.97 1.08 1.19 1.43 1.58 1.61 1.67 1.91 1.85 1.72 1.62 1.49 1.29 1.06 0.91 0.86
0.21 0.43 0.70 0.85 0.98 0.86 0.85 0.88 0.73 0.79 0.82 0.81 0.86 1.33 1.66 1.56 1.21 1.19 1.17 1.07 0.83 0.93 0.92 0.86 0.90 0.87 0.81 0.71 0.66 0.71 0.74 0.82 0.86 0.98 1.11 1.17 1.33 1.39 1.47 1.67 1.83 1.76 1.62 1.45 1.32 1.15 0.96 0.94 0.96
0.17 0.40 0.72 0.80 0.87 0.72 0.72 0.72 0.68 0.73 0.81 0.89 1.08 1.50 1.94 1.80 1.52 1.40 1.32 1.16 0.94 0.97 1.01 0.98 1.03 0.99 0.93 0.77 0.70 0.76 0.84 0.90 0.94 0.99 1.04 1.09 1.16 1.22 1.40 1.66 1.79 1.67 1.40 1.27 1.23 1.12 1.00 0.98 1.02
0.13 0.30 0.59 0.64 0.75 0.76 0.69 0.59 0.64 0.82 1.08 1.15 1.24 1.63 1.94 2.27 2.04 1.74 1.66 1.52 1.25 1.14 1.10 1.08 1.07 0.94 0.97 0.96 0.86 0.90 1.02 1.05 1.01 1.01 1.02 1.06 1.14 1.23 1.41 1.71 1.78 1.59 1.30 1.18 1.15 1.12 1.02 0.94 1.00
0.10 0.19 0.35 0.52 0.62 0.71 0.60 0.53 0.54 0.71 1.11 1.09 1.14 1.45 1.97 1.98 1.96 2.14 2.08 2.06 1.77 1.56 1.34 1.21 1.25 1.22 1.09 1.06 1.03 1.13 1.21 1.21 1.18 1.11 1.16 1.24 1.34 1.39 1.59 1.73 1.70 1.52 1.30 1.21 1.16 1.14 1.03 0.99 1.01
0.08 0.20 0.26 0.41 0.50 0.50 0.41 0.42 0.46 0.61 0.80 0.98 1.19 1.24 1.48 1.42 1.64 2.07 2.32 2.53 2.44 1.91 1.67 1.44 1.32 1.27 1.19 1.13 1.21 1.52 1.53 1.44 1.40 1.43 1.48 1.54 1.74 1.89 2.11 1.90 1.82 1.62 1.49 1.50 1.44 1.43 1.31 1.19 1.11
0.08 0.19 0.19 0.23 0.30 0.30 0.27 0.31 0.37 0.65 1.10 1.48 1.61 1.50 1.46 1.50 1.88 2.20 2.27 2.33 2.49 2.08 1.75 1.69 1.57 1.40 1.29 1.14 1.28 1.72 1.58 1.53 1.67 1.83 1.76 1.99 2.37 2.65 2.31 2.23 2.23 2.18 2.13 2.04 2.06 2.11 1.73 1.42 1.52
0.05 0.09 0.13 0.18 0.20 0.21 0.24 0.30 0.35 0.61 1.18 1.55 1.69 1.69 1.72 1.70 2.08 2.46 2.60 2.40 2.44 2.28 1.94 1.83 1.71 1.63 1.62 1.72 1.54 1.67 1.79 1.91 2.00 2.04 2.12 2.32 2.38 2.55 2.59 2.60 2.65 2.70 2.52 2.39 2.61 2.57 2.00 2.04 2.47
0.03 0.04 0.09 0.14 0.18 0.21 0.22 0.26 0.44 0.63 1.01 1.32 1.36 1.75 1.97 1.92 2.28 2.53 2.64 2.75 2.64 2.52 2.21 1.99 1.85 1.85 1.93 1.88 1.84 1.78 1.86 1.93 2.13 2.32 2.31 2.56 2.94 3.02 3.05 3.01 2.85 2.91 2.92 3.13 3.10 3.17 2.72 2.72 2.55
0.03 0.04 0.08 0.10 0.15 0.19 0.23 0.27 0.34 0.66 0.84 1.07 1.28 1.64 1.87 1.91 2.29 2.62 2.90 2.99 2.96 2.67 2.34 2.29 2.04 1.97 2.03 2.19 2.30 2.06 2.30 2.33 2.40 2.64 2.78 2.89 3.20 3.25 3.24 3.15 3.13 2.83 2.93 3.13 3.50 3.40 3.60 3.56 3.15
0.02 0.04 0.08 0.10 0.13 0.18 0.32 0.42 0.44 0.81 0.86 1.01 1.28 1.70 1.79 1.80 2.05 2.07 2.45 2.78 2.90 2.64 2.45 2.39 2.27 2.30 2.39 2.42 2.54 2.67 2.83 2.92 2.87 2.90 3.01 3.08 3.28 3.57 3.57 3.47 3.39 3.03 2.92 3.24 3.60 3.60 4.11 3.99 3.80
0.04 0.09 0.14 0.16 0.19 0.26 0.37 0.63 0.68 0.89 0.96 1.20 1.26 1.45 1.60 1.60 1.76 1.95 2.21 2.54 2.64 2.42 2.51 2.64 2.75 2.95 3.04 3.07 3.06 3.04 3.19 3.23 3.35 3.64 3.72 3.75 3.64 3.76 3.65 3.58 3.41 3.32 3.26 3.45 3.55 3.67 4.08 3.83 3.78
0.08 0.18 0.29 0.30 0.28 0.33 0.53 1.11 1.01 1.06 1.04 1.12 1.15 1.32 1.40 1.46 1.64 1.98 2.12 2.37 2.53 2.43 2.56 2.79 2.86 3.27 3.47 3.57 3.68 3.61 3.58 3.58 3.86 4.07 4.24 4.19 3.98 3.79 3.86 3.59 3.36 3.48 3.45 3.64 3.95 3.94 4.02 4.14 4.07
0.14 0.22 0.31 0.36 0.26 0.27 0.48 0.91 0.88 0.96 1.17 1.07 1.07 1.14 1.20 1.27 1.39 1.62 1.89 2.15 2.45 2.79 3.09 3.43 3.49 3.48 3.60 3.83 4.00 3.79 3.78 3.76 3.78 3.88 4.13 4.05 3.75 3.59 3.89 3.72 3.70 3.67 3.88 3.80 3.48 4.04 4.23 4.24 4.15
0.12 0.20 0.27 0.31 0.30 0.27 0.41 0.63 0.80 0.91 1.02 1.11 1.12 1.21 1.30 1.43 1.68 1.89 2.21 2.40 2.67 3.19 3.58 3.80 3.85 4.09 4.40 4.62 4.53 4.30 3.92 3.69 3.59 3.64 3.80 3.72 3.63 3.50 3.79 3.58 3.56 3.75 4.15 4.24 4.10 4.33 4.26 4.11 4.18
0.11 0.21 0.26 0.28 0.33 0.37 0.46 0.53 0.84 1.09 1.19 1.33 1.51 1.75 1.91 2.09 2.16 2.35 2.73 2.99 3.15 3.28 3.50 3.77 4.21 4.60 4.73 4.55 4.48 4.46 4.23 3.93 3.55 3.38 3.47 3.52 3.30 3.34 3.73 3.41 3.78 3.85 4.07 4.22 4.16 4.38 4.30 4.08 4.20
0.13 0.22 0.29 0.33 0.36 0.37 0.53 0.64 0.88 1.33 1.48 1.44 1.50 1.52 1.56 2.00 2.20 2.43 2.76 2.90 2.86 3.04 3.32 3.75 4.22 4.55 4.45 4.57 4.80 4.79 4.60 3.94 3.58 3.44 3.42 3.32 3.16 3.12 3.23 3.76 3.72 3.84 4.06 4.12 4.07 4.14 3.93 3.66 4.02
0.15 0.19 0.25 0.31 0.43 0.43 0.55 0.97 1.15 1.44 1.58 1.46 1.41 1.42 1.38 1.57 1.87 2.01 2.21 2.37 2.61 3.03 3.49 3.83 4.14 4.27 4.27 4.49 4.66 4.39 4.20 3.73 3.58 3.56 3.43 3.25 3.20 3.17 3.29 3.55 3.64 3.71 3.61 3.86 4.06 3.87 3.81 3.69 3.74
0.17 0.16 0.18 0.26 0.43 0.59 0.65 1.29 1.58 1.77 1.65 1.38 1.39 1.44 1.54 1.66 1.75 1.87 1.90 2.20 2.59 3.03 3.62 4.03 4.05 4.11 3.96 4.09 4.24 4.10 3.76 3.51 3.40 3.38 3.15 3.02 2.94 2.93 3.04 3.20 3.40 3.56 3.48 3.66 3.54 3.59 3.75 3.77 3.59
0.14 0.13 0.15 0.24 0.37 0.59 0.73 1.12 1.59 1.69 1.59 1.29 1.20 1.40 1.63 1.61 1.67 1.90 1.85 2.04 2.32 2.74 3.15 3.57 3.92 3.96 3.76 3.70 3.76 3.91 3.74 3.46 3.24 3.14 3.05 2.99 2.95 2.76 2.74 2.95 3.20 3.36 3.25 3.22 3.42 3.72 3.66 3.56 3.52
0.10 0.13 0.22 0.36 0.58 0.97 0.77 0.87 1.29 1.54 1.43 1.18 1.19 1.32 1.49 1.66 1.67 1.83 2.08 2.14 2.29 2.55 2.90 3.20 3.42 3.38 3.31 3.25 3.29 3.42 3.50 3.46 3.22 3.02 3.05 3.00 2.86 2.70 2.63 2.73 3.07 3.17 3.10 3.07 3.17 3.26 3.30 3.34 3.52
0.12 0.23 0.63 1.04 1.34 1.18 0.80 0.87 1.22 1.17 1.01 0.92 1.00 1.27 1.52 1.79 1.81 1.85 2.03 2.15 2.25 2.36 2.54 2.69 2.76 2.79 2.75 2.78 2.75 2.75 2.90 2.98 2.87 2.78 2.85 2.85 2.74 2.62 2.61 2.60 2.75 2.68 2.68 2.78 3.01 3.04 2.99 3.05 3.18
0.16 0.27 0.66 0.92 1.07 1.00 0.93 1.13 1.20 0.96 0.82 0.83 0.91 1.10 1.40 1.58 1.62 1.73 1.81 1.75 1.77 1.83 1.97 2.12 2.20 2.21 2.18 2.25 2.34 2.36 2.57 2.59 2.60 2.73 2.63 2.66 2.60 2.57 2.52 2.45 2.40 2.32 2.34 2.40 2.74 2.84 2.79 2.87 2.89
0.23 0.29 0.31 0.52 0.65 1.02 1.22 1.32 1.21 0.89 1.00 1.00 1.08 1.14 1.20 1.26 1.32 1.34 1.37 1.42 1.54 1.58 1.65 1.78 1.87 1.87 1.80 1.86 2.03 2.11 2.18 2.31 2.41 2.52 2.42 2.29 2.31 2.20 2.27 2.26 2.18 2.12 2.22 2.36 2.47 2.48 2.48 2.60 2.58
0.24 0.37 0.50 0.73 0.98 1.16 1.30 1.55 1.72 1.52 1.42 1.29 1.40 1.62 1.37 1.11 1.15 1.19 1.18 1.22 1.25 1.31 1.42 1.58 1.68 1.82 1.81 1.77 1.83 1.82 1.93 2.03 2.20 2.28 2.17 2.18 2.26 2.21 2.13 2.07 1.99 1.99 2.05 2.12 2.26 2.21 2.27 2.29 2.28
0.36 0.45 0.55 0.69 0.80 1.08 1.43 1.61 1.39 1.53 1.48 1.41 1.39 1.44 1.32 1.01 0.93 1.03 0.99 1.01 1.07 1.14 1.25 1.40 1.68 1.84 1.77 1.62 1.69 1.80 1.78 1.87 1.96 2.01 1.94 2.04 2.14 2.28 2.25 2.17 2.11 1.97 1.91 1.98 2.07 1.95 2.06 2.09 2.09
0.30 0.44 0.55 0.72 0.80 0.91 1.15 1.40 1.01 1.16 1.14 1.11 1.17 1.04 0.96 0.90 0.74 0.86 0.91 0.86 0.91 0.96 1.07 1.25 1.48 1.64 1.66 1.61 1.64 1.77 1.83 1.81 1.77 1.74 1.77 1.83 1.87 1.94 1.95 1.92 1.91 1.91 1.99 2.08 2.00 1.93 1.95 2.03 2.00

GEFSSGP_prec_meanprecacc_288.txt.gz
Total_Precipitation_Accumulation
0.10 0.23 0.47 0.85 1.44 2.05 2.22 1.65 1.23 1.06 0.93 0.85 0.69 0.61 0.70 0.98 1.29 2.03 2.09 1.81 1.25 1.17 1.30 1.27 1.24 1.02 0.90 0.92 0.95 0.95 0.95 0.91 0.84 0.95 1.18 1.36 1.59 1.80 1.82 1.87 2.09 2.40 2.43 2.33 2.26 1.96 1.69 1.57 1.39
0.17 0.29 0.56 1.03 1.83 2.56 2.33 1.50 1.13 1.02 0.80 0.71 0.66 0.64 0.75 0.91 0.95 1.27 1.69 1.51 1.03 0.93 0.95 0.87 0.94 0.93 0.86 0.85 0.84 0.83 0.85 0.85 0.85 0.96 1.15 1.32 1.47 1.70 1.84 2.00 2.22 2.41 2.29 2.22 1.94 1.65 1.46 1.32 1.16
0.29 0.42 0.61 1.08 1.55 2.14 1.91 1.35 0.94 0.81 0.70 0.73 0.87 0.79 0.98 1.26 1.28 1.49 1.42 1.11 0.93 0.85 0.78 0.90 0.92 0.86 0.83 0.79 0.82 0.83 0.84 0.83 0.88 0.96 1.11 1.27 1.46 1.69 1.83 1.87 2.08 2.12 1.98 1.89 1.71 1.52 1.27 1.11 1.02
0.28 0.51 0.63 0.91 1.05 1.05 1.18 1.19 0.83 0.86 0.85 0.75 0.84 1.13 1.26 1.31 1.30 1.44 1.34 1.10 0.83 0.81 0.79 0.85 0.89 0.84 0.85 0.79 0.75 0.80 0.81 0.86 0.91 1.05 1.19 1.29 1.52 1.68 1.70 1.76 2.02 1.99 1.85 1.74 1.61 1.38 1.12 0.97 0.89
0.22 0.45 0.73 0.88 0.99 0.88 0.88 0.91 0.75 0.80 0.83 0.82 0.87 1.36 1.68 1.58 1.23 1.20 1.19 1.11 0.86 0.97 0.98 0.91 0.95 0.93 0.87 0.77 0.70 0.75 0.79 0.87 0.92 1.07 1.22 1.29 1.42 1.50 1.58 1.76 1.92 1.86 1.72 1.56 1.43 1.26 1.05 0.99 0.99
0.18 0.41 0.75 0.83 0.88 0.73 0.73 0.75 0.69 0.74 0.81 0.90 1.08 1.51 1.96 1.83 1.54 1.43 1.35 1.20 0.98 1.00 1.05 1.01 1.08 1.04 0.98 0.83 0.74 0.80 0.88 0.95 1.00 1.07 1.13 1.19 1.25 1.33 1.50 1.76 1.89 1.76 1.50 1.37 1.34 1.23 1.08 1.03 1.06
0.14 0.30 0.61 0.66 0.76 0.77 0.69 0.59 0.64 0.83 1.08 1.15 1.25 1.64 1.97 2.33 2.08 1.76 1.69 1.55 1.29 1.17 1.13 1.11 1.11 0.99 1.03 1.00 0.90 0.94 1.07 1.10 1.08 1.08 1.09 1.12 1.20 1.31 1.51 1.81 1.90 1.70 1.41 1.30 1.25 1.22 1.09 0.99 1.03
0.10 0.19 0.36 0.53 0.63 0.72 0.60 0.53 0.54 0.72 1.12 1.09 1.15 1.47 1.99 2.02 1.98 2.16 2.11 2.09 1.80 1.59 1.36 1.23 1.28 1.25 1.12 1.09 1.07 1.18 1.25 1.26 1.23 1.17 1.23 1.31 1.40 1.45 1.67 1.83 1.83 1.63 1.41 1.32 1.25 1.24 1.10 1.04 1.05
0.09 0.20 0.27 0.43 0.51 0.51 0.41 0.42 0.46 0.62 0.81 0.99 1.20 1.25 1.50 1.44 1.65 2.09 2.34 2.57 2.47 1.94 1.70 1.46 1.34 1.29 1.21 1.17 1.25 1.56 1.56 1.48 1.46 1.50 1.54 1.63 1.88 1.99 2.18 2.00 1.94 1.72 1.58 1.58 1.51 1.51 1.39 1.25 1.16
0.08 0.20 0.21 0.24 0.30 0.30 0.28 0.31 0.37 0.66 1.11 1.49 1.61 1.51 1.47 1.52 1.91 2.23 2.29 2.38 2.53 2.12 1.78 1.71 1.59 1.43 1.33 1.17 1.33 1.79 1.65 1.60 1.75 1.92 1.85 2.08 2.48 2.76 2.40 2.35 2.34 2.27 2.22 2.11 2.13 2.19 1.82 1.49 1.57
0.05 0.10 0.13 0.18 0.20 0.21 0.24 0.30 0.35 0.61 1.19 1.56 1.70 1.71 1.74 1.72 2.12 2.49 2.62 2.44 2.47 2.30 1.96 1.84 1.74 1.65 1.65 1.75 1.57 1.73 1.85 1.97 2.06 2.10 2.18 2.39 2.44 2.62 2.71 2.75 2.77 2.81 2.63 2.49 2.71 2.66 2.09 2.11 2.52
0.03 0.04 0.09 0.14 0.18 0.21 0.22 0.26 0.44 0.63 1.02 1.32 1.37 1.77 1.99 1.94 2.31 2.56 2.68 2.80 2.68 2.55 2.24 2.01 1.88 1.88 1.96 1.91 1.87 1.82 1.92 1.99 2.17 2.36 2.36 2.63 3.00 3.10 3.18 3.16 2.98 3.07 3.06 3.26 3.23 3.27 2.82 2.82 2.60
0.03 0.04 0.08 0.10 0.15 0.19 0.23 0.27 0.34 0.66 0.84 1.07 1.28 1.65 1.88 1.93 2.32 2.65 2.94 3.05 3.00 2.71 2.38 2.32 2.07 2.00 2.05 2.23 2.36 2.10 2.34 2.37 2.44 2.68 2.83 2.95 3.26 3.32 3.35 3.29 3.28 2.97 3.04 3.27 3.63 3.50 3.70 3.67 3.24
0.02 0.04 0.08 0.10 0.13 0.18 0.32 0.42 0.44 0.81 0.87 1.01 1.28 1.71 1.80 1.82 2.08 2.11 2.50 2.86 2.96 2.69 2.51 2.45 2.31 2.34 2.41 2.46 2.58 2.70 2.86 2.97 2.90 2.94 3.06 3.13 3.33 3.65 3.67 3.59 3.52 3.15 3.04 3.36 3.70 3.70 4.23 4.11 3.90
0.04 0.09 0.14 0.16 0.19 0.26 0.37 0.64 0.68 0.89 0.96 1.20 1.27 1.45 1.61 1.62 1.78 1.99 2.28 2.62 2.70 2.48 2.56 2.69 2.78 2.98 3.07 3.10 3.09 3.07 3.21 3.25 3.38 3.69 3.76 3.81 3.71 3.85 3.73 3.68 3.51 3.43 3.36 3.53 3.63 3.76 4.19 3.95 3.89
0.08 0.18 0.29 0.30 0.29 0.33 0.53 1.11 1.01 1.06 1.04 1.13 1.15 1.32 1.41 1.47 1.65 1.99 2.16 2.44 2.61 2.50 2.61 2.84 2.89 3.30 3.49 3.59 3.70 3.63 3.61 3.63 3.90 4.12 4.30 4.25 4.05 3.87 3.94 3.68 3.47 3.56 3.51 3.71 4.04 4.05 4.15 4.28 4.20
0.15 0.22 0.31 0.37 0.26 0.27 0.49 0.92 0.88 0.96 1.17 1.07 1.07 1.14 1.20 1.27 1.41 1.64 1.91 2.25 2.59 2.87 3.14 3.47 3.53 3.51 3.62 3.84 4.02 3.81 3.83 3.83 3.85 3.95 4.21 4.12 3.80 3.65 4.01 3.84 3.82 3.74 3.95 3.86 3.54 4.15 4.36 4.36 4.26
0.13 0.20 0.28 0.32 0.30 0.27 0.41 0.64 0.80 0.91 1.02 1.11 1.12 1.21 1.30 1.44 1.69 1.89 2.22 2.44 2.72 3.24 3.64 3.87 3.88 4.12 4.44 4.65 4.57 4.34 4.00 3.80 3.69 3.75 3.90 3.81 3.74 3.60 3.93 3.72 3.68 3.85 4.24 4.32 4.18 4.45 4.37 4.22 4.28
0.11 0.21 0.26 0.29 0.33 0.37 0.46 0.54 0.85 1.09 1.19 1.33 1.51 1.75 1.92 2.09 2.17 2.35 2.73 3.00 3.17 3.31 3.58 3.88 4.25 4.63 4.76 4.60 4.54 4.52 4.31 4.05 3.68 3.53 3.62 3.65 3.41 3.44 3.86 3.55 3.94 3.98 4.17 4.31 4.25 4.47 4.39 4.17 4.28
0.13 0.22 0.29 0.34 0.37 0.37 0.53 0.65 0.88 1.33 1.48 1.44 1.50 1.52 1.57 2.00 2.20 2.43 2.76 2.90 2.87 3.06 3.37 3.79 4.25 4.58 4.50 4.63 4.86 4.85 4.66 4.03 3.70 3.59 3.58 3.44 3.26 3.21 3.35 3.89 3.86 3.97 4.19 4.24 4.17 4.23 4.03 3.75 4.10
0.15 0.19 0.25 0.32 0.45 0.43 0.55 0.98 1.15 1.44 1.58 1.46 1.41 1.42 1.38 1.57 1.88 2.01 2.21 2.37 2.61 3.03 3.51 3.85 4.18 4.32 4.34 4.57 4.73 4.47 4.28 3.82 3.69 3.70 3.59 3.37 3.29 3.27 3.41 3.68 3.77 3.85 3.74 3.98 4.15 3.96 3.91 3.80 3.83
0.17 0.16 0.18 0.27 0.45 0.60 0.66 1.30 1.58 1.77 1.65 1.38 1.39 1.44 1.54 1.66 1.75 1.87 1.90 2.21 2.59 3.03 3.63 4.06 4.09 4.16 4.02 4.16 4.32 4.19 3.85 3.61 3.50 3.49 3.27 3.13 3.03 3.02 3.14 3.31 3.51 3.66 3.57 3.74 3.61 3.67 3.85 3.88 3.69
0.14 0.13 0.15 0.25 0.38 0.61 0.73 1.13 1.60 1.69 1.60 1.29 1.20 1.40 1.63 1.61 1.67 1.90 1.85 2.04 2.32 2.75 3.17 3.60 3.95 4.01 3.82 3.77 3.85 4.01 3.84 3.55 3.32 3.21 3.12 3.05 3.01 2.81 2.79 3.01 3.26 3.43 3.31 3.28 3.47 3.79 3.73 3.63 3.59
0.11 0.13 0.22 0.36 0.58 0.99 0.77 0.87 1.30 1.55 1.44 1.19 1.19 1.32 1.49 1.66 1.67 1.83 2.08 2.14 2.29 2.56 2.92 3.23 3.46 3.44 3.38 3.34 3.38 3.51 3.57 3.52 3.28 3.09 3.13 3.08 2.92 2.75 2.67 2.78 3.13 3.23 3.16 3.13 3.23 3.31 3.36 3.40 3.58
0.12 0.24 0.64 1.06 1.36 1.18 0.80 0.87 1.22 1.18 1.01 0.93 1.00 1.27 1.52 1.79 1.81 1.85 2.03 2.15 2.25 2.36 2.55 2.71 2.80 2.85 2.82 2.85 2.83 2.82 2.95 3.03 2.92 2.83 2.90 2.92 2.79 2.67 2.66 2.65 2.81 2.74 2.74 2.83 3.07 3.10 3.05 3.11 3.24
0.16 0.28 0.69 0.94 1.09 1.03 0.94 1.15 1.21 0.96 0.82 0.84 0.91 1.10 1.40 1.58 1.62 1.73 1.81 1.75 1.77 1.83 1.97 2.13 2.22 2.24 2.21 2.30 2.40 2.42 2.62 2.64 2.64 2.76 2.66 2.69 2.62 2.59 2.54 2.48 2.43 2.36 2.38 2.44 2.80 2.89 2.83 2.94 2.96
0.23 0.30 0.32 0.52 0.66 1.05 1.25 1.33 1.21 0.89 1.01 1.00 1.08 1.14 1.20 1.27 1.32 1.34 1.37 1.43 1.54 1.58 1.66 1.78 1.88 1.88 1.81 1.88 2.06 2.14 2.22 2.34 2.43 2.54 2.44 2.31 2.34 2.22 2.29 2.28 2.20 2.16 2.25 2.40 2.52 2.53 2.53 2.69 2.66
0.24 0.37 0.50 0.73 0.99 1.18 1.33 1.57 1.74 1.54 1.45 1.30 1.40 1.62 1.37 1.11 1.15 1.19 1.18 1.23 1.25 1.31 1.43 1.59 1.68 1.82 1.82 1.79 1.85 1.83 1.94 2.04 2.22 2.30 2.18 2.20 2.29 2.23 2.15 2.10 2.02 2.03 2.09 2.16 2.33 2.28 2.36 2.36 2.35
0.36 0.45 0.55 0.69 0.80 1.09 1.45 1.64 1.42 1.57 1.55 1.47 1.41 1.44 1.32 1.01 0.94 1.03 0.99 1.01 1.07 1.14 1.25 1.40 1.69 1.85 1.79 1.64 1.70 1.81 1.79 1.87 1.97 2.03 1.96 2.06 2.17 2.31 2.28 2.21 2.16 2.02 1.96 2.04 2.13 2.00 2.13 2.14 2.14
0.30 0.44 0.55 0.72 0.81 0.91 1.16 1.42 1.03 1.16 1.14 1.11 1.17 1.04 0.96 0.91 0.74 0.86 0.91 0.86 0.91 0.96 1.07 1.25 1.48 1.65 1.67 1.62 1.65 1.77 1.84 1.82 1.78 1.75 1.79 1.85 1.89 1.97 1.99 1.95 1.96 1.95 2.03 2.13 2.04 1.98 2.01 2.09 2.05

GEFSSGP_prec_meanprecacc_294.txt.gz
Total_Precipitation_Accumulation
0.12 0.28 0.56 1.01 1.60 2.15 2.29 1.70 1.27 1.10 0.95 0.88 0.71 0.62 0.72 1.00 1.31 2.09 2.19 1.91 1.29 1.21 1.34 1.29 1.29 1.07 0.95 0.96 1.00 1.01 1.00 0.95 0.89 1.01 1.27 1.45 1.70 1.96 1.98 2.05 2.27 2.56 2.56 2.44 2.37 2.05 1.78 1.65 1.45
0.22 0.38 0.72 1.22 1.95 2.63 2.39 1.55 1.18 1.04 0.81 0.72 0.67 0.64 0.75 0.91 0.97 1.32 1.78 1.58 1.06 0.96 0.97 0.89 0.99 0.98 0.91 0.91 0.89 0.87 0.90 0.89 0.90 1.01 1.23 1.41 1.60 1.87 1.97 2.12 2.34 2.51 2.38 2.31 2.03 1.75 1.55 1.38 1.21
0.36 0.52 0.75 1.20 1.64 2.22 1.98 1.39 0.96 0.81 0.70 0.73 0.87 0.79 0.98 1.28 1.30 1.54 1.49 1.14 0.95 0.87 0.81 0.93 0.96 0.90 0.88 0.83 0.85 0.86 0.87 0.86 0.91 1.00 1.17 1.33 1.57 1.82 1.96 2.02 2.23 2.24 2.08 1.98 1.80 1.61 1.34 1.17 1.06
0.38 0.60 0.76 1.00 1.13 1.15 1.25 1.24 0.85 0.87 0.86 0.75 0.84 1.13 1.27 1.34 1.33 1.48 1.38 1.12 0.85 0.83 0.82 0.88 0.93 0.88 0.89 0.83 0.77 0.82 0.84 0.89 0.94 1.10 1.25 1.34 1.60 1.79 1.83 1.94 2.21 2.13 1.97 1.84 1.69 1.45 1.18 1.02 0.93
0.28 0.53 0.82 0.94 1.04 0.94 0.92 0.93 0.76 0.80 0.84 0.82 0.87 1.36 1.70 1.62 1.25 1.23 1.22 1.13 0.88 0.99 1.01 0.94 0.97 0.96 0.90 0.79 0.72 0.77 0.80 0.89 0.96 1.11 1.27 1.34 1.48 1.60 1.75 1.95 2.07 1.97 1.81 1.65 1.51 1.32 1.10 1.04 1.05
0.23 0.48 0.81 0.87 0.93 0.77 0.76 0.76 0.70 0.74 0.82 0.90 1.08 1.51 1.99 1.88 1.57 1.46 1.37 1.23 1.00 1.01 1.07 1.04 1.11 1.08 1.02 0.86 0.76 0.82 0.90 0.97 1.04 1.11 1.18 1.25 1.33 1.45 1.65 1.91 1.99 1.84 1.56 1.44 1.41 1.27 1.12 1.08 1.11
0.18 0.34 0.65 0.69 0.81 0.80 0.70 0.60 0.64 0.83 1.09 1.16 1.26 1.65 1.99 2.38 2.12 1.79 1.71 1.58 1.31 1.19 1.15 1.14 1.16 1.04 1.09 1.05 0.93 0.96 1.09 1.13 1.11 1.13 1.13 1.18 1.30 1.44 1.63 1.91 1.99 1.78 1.49 1.38 1.32 1.26 1.14 1.04 1.08
0.13 0.22 0.42 0.59 0.66 0.74 0.60 0.54 0.55 0.72 1.12 1.10 1.16 1.48 2.01 2.05 2.01 2.19 2.14 2.14 1.83 1.62 1.41 1.32 1.39 1.33 1.18 1.14 1.13 1.23 1.29 1.30 1.27 1.22 1.28 1.38 1.56 1.59 1.78 1.92 1.92 1.74 1.52 1.42 1.32 1.30 1.16 1.10 1.10
0.10 0.22 0.29 0.46 0.53 0.52 0.41 0.42 0.46 0.63 0.81 0.99 1.20 1.27 1.52 1.46 1.67 2.10 2.36 2.61 2.51 1.96 1.74 1.52 1.39 1.32 1.25 1.20 1.29 1.62 1.64 1.55 1.52 1.56 1.60 1.70 2.01 2.09 2.27 2.10 2.05 1.83 1.70 1.69 1.59 1.59 1.47 1.31 1.21
0.09 0.21 0.22 0.24 0.31 0.31 0.28 0.31 0.37 0.66 1.11 1.50 1.62 1.53 1.49 1.54 1.93 2.25 2.31 2.40 2.55 2.13 1.80 1.73 1.61 1.45 1.35 1.20 1.36 1.85 1.71 1.65 1.81 1.97 1.89 2.14 2.57 2.84 2.48 2.48 2.48 2.42 2.37 2.24 2.23 2.29 1.90 1.54 1.60
0.06 0.10 0.14 0.18 0.21 0.21 0.25 0.30 0.35 0.61 1.19 1.57 1.71 1.73 1.76 1.74 2.14 2.50 2.64 2.47 2.49 2.31 1.97 1.86 1.76 1.68 1.68 1.78 1.62 1.80 1.91 2.03 2.12 2.13 2.21 2.43 2.50 2.70 2.83 2.88 2.89 2.94 2.79 2.59 2.79 2.74 2.13 2.14 2.55
0.03 0.05 0.09 0.14 0.18 0.21 0.22 0.26 0.44 0.64 1.02 1.33 1.37 1.77 2.01 1.96 2.32 2.58 2.69 2.82 2.69 2.56 2.25 2.04 1.90 1.90 1.99 1.94 1.91 1.90 1.97 2.05 2.24 2.39 2.39 2.67 3.07 3.19 3.32 3.30 3.10 3.18 3.17 3.34 3.29 3.32 2.86 2.86 2.65
0.03 0.04 0.08 0.10 0.15 0.19 0.23 0.27 0.34 0.66 0.84 1.07 1.29 1.66 1.91 1.96 2.35 2.68 2.96 3.07 3.02 2.73 2.41 2.36 2.09 2.02 2.07 2.25 2.39 2.13 2.39 2.43 2.48 2.71 2.86 2.99 3.32 3.42 3.51 3.46 3.43 3.10 3.13 3.34 3.68 3.54 3.73 3.71 3.28
0.03 0.05 0.08 0.10 0.13 0.18 0.33 0.43 0.44 0.81 0.87 1.02 1.28 1.71 1.82 1.86 2.13 2.15 2.54 2.90 2.99 2.71 2.52 2.47 2.33 2.36 2.44 2.50 2.64 2.73 2.90 3.02 2.94 2.96 3.08 3.17 3.40 3.77 3.81 3.75 3.69 3.28 3.13 3.43 3.76 3.75 4.27 4.16 3.96
0.04 0.09 0.15 0.16 0.20 0.26 0.37 0.64 0.69 0.89 0.97 1.20 1.27 1.46 1.62 1.64 1.82 2.06 2.35 2.69 2.76 2.52 2.59 2.71 2.80 3.01 3.12 3.13 3.13 3.10 3.25 3.31 3.42 3.71 3.78 3.84 3.78 3.94 3.81 3.80 3.63 3.51 3.43 3.60 3.67 3.80 4.23 4.00 3.96
0.08 0.19 0.30 0.31 0.30 0.33 0.54 1.13 1.03 1.06 1.05 1.13 1.15 1.32 1.41 1.49 1.69 2.05 2.22 2.51 2.71 2.59 2.65 2.87 2.92 3.32 3.51 3.62 3.73 3.66 3.66 3.68 3.93 4.16 4.33 4.28 4.11 3.92 3.99 3.75 3.54 3.62 3.57 3.76 4.08 4.09 4.18 4.33 4.26
0.16 0.23 0.32 0.38 0.27 0.27 0.50 0.94 0.89 0.97 1.17 1.08 1.07 1.14 1.21 1.30 1.45 1.68 1.97 2.32 2.66 2.91 3.16 3.50 3.56 3.53 3.65 3.87 4.04 3.83 3.88 3.88 3.89 4.00 4.26 4.16 3.84 3.71 4.07 3.91 3.89 3.80 4.01 3.92 3.59 4.20 4.42 4.43 4.32
0.13 0.21 0.29 0.33 0.31 0.27 0.42 0.64 0.81 0.91 1.03 1.12 1.12 1.21 1.31 1.46 1.71 1.92 2.27 2.51 2.77 3.26 3.66 3.89 3.90 4.14 4.46 4.68 4.58 4.37 4.06 3.90 3.78 3.82 3.99 3.88 3.80 3.71 4.01 3.80 3.75 3.90 4.30 4.36 4.22 4.51 4.43 4.27 4.32
0.12 0.21 0.27 0.29 0.34 0.38 0.47 0.54 0.85 1.09 1.20 1.33 1.52 1.75 1.93 2.12 2.18 2.37 2.77 3.04 3.20 3.33 3.60 3.89 4.26 4.65 4.78 4.62 4.57 4.57 4.40 4.18 3.78 3.62 3.73 3.76 3.53 3.57 3.94 3.63 4.00 4.03 4.22 4.36 4.30 4.54 4.44 4.20 4.31
0.14 0.23 0.30 0.35 0.37 0.39 0.54 0.66 0.89 1.33 1.49 1.44 1.51 1.53 1.57 2.01 2.22 2.45 2.78 2.93 2.90 3.09 3.39 3.81 4.27 4.61 4.52 4.65 4.90 4.91 4.74 4.15 3.82 3.70 3.69 3.55 3.37 3.32 3.42 3.94 3.91 4.01 4.23 4.30 4.24 4.29 4.07 3.78 4.14
0.16 0.19 0.26 0.33 0.46 0.44 0.57 1.00 1.16 1.45 1.59 1.47 1.42 1.43 1.38 1.58 1.90 2.06 2.24 2.40 2.66 3.06 3.53 3.88 4.20 4.34 4.37 4.59 4.77 4.52 4.37 3.95 3.84 3.82 3.70 3.48 3.39 3.35 3.48 3.74 3.83 3.92 3.80 4.04 4.22 4.02 3.97 3.86 3.89
0.18 0.17 0.19 0.27 0.46 0.61 0.68 1.34 1.60 1.79 1.67 1.39 1.40 1.45 1.55 1.67 1.76 1.88 1.92 2.23 2.63 3.07 3.67 4.11 4.12 4.20 4.07 4.21 4.38 4.25 3.94 3.72 3.59 3.56 3.36 3.23 3.13 3.12 3.24 3.41 3.60 3.74 3.63 3.80 3.65 3.73 3.93 3.97 3.78
0.14 0.14 0.16 0.26 0.39 0.62 0.74 1.16 1.62 1.71 1.61 1.31 1.22 1.42 1.65 1.62 1.67 1.91 1.86 2.06 2.35 2.79 3.21 3.65 4.00 4.08 3.90 3.87 3.98 4.12 3.93 3.63 3.39 3.25 3.18 3.12 3.09 2.91 2.89 3.11 3.33 3.46 3.35 3.32 3.52 3.86 3.81 3.72 3.68
0.11 0.14 0.24 0.37 0.59 1.00 0.78 0.89 1.31 1.56 1.46 1.22 1.23 1.35 1.52 1.67 1.67 1.83 2.09 2.15 2.31 2.59 2.96 3.26 3.49 3.48 3.44 3.42 3.47 3.57 3.62 3.57 3.33 3.13 3.17 3.13 2.96 2.81 2.74 2.83 3.17 3.28 3.22 3.20 3.30 3.39 3.44 3.48 3.65
0.13 0.26 0.67 1.08 1.38 1.20 0.81 0.88 1.24 1.19 1.04 0.96 1.04 1.30 1.54 1.81 1.82 1.85 2.04 2.16 2.27 2.38 2.56 2.73 2.81 2.87 2.84 2.87 2.86 2.86 2.98 3.06 2.95 2.86 2.95 2.96 2.84 2.73 2.72 2.72 2.87 2.81 2.81 2.91 3.14 3.17 3.12 3.17 3.29
0.17 0.30 0.71 0.96 1.12 1.05 0.95 1.16 1.24 0.99 0.86 0.87 0.97 1.15 1.43 1.60 1.64 1.74 1.82 1.76 1.78 1.84 1.98 2.14 2.23 2.26 2.23 2.32 2.42 2.43 2.64 2.66 2.66 2.79 2.69 2.72 2.66 2.64 2.60 2.54 2.50 2.43 2.45 2.50 2.87 2.95 2.89 2.99 3.02
0.24 0.31 0.34 0.55 0.69 1.08 1.28 1.35 1.23 0.92 1.07 1.07 1.17 1.22 1.24 1.30 1.34 1.35 1.38 1.43 1.54 1.59 1.66 1.79 1.89 1.90 1.84 1.91 2.08 2.15 2.23 2.36 2.45 2.55 2.46 2.33 2.36 2.26 2.35 2.32 2.23 2.20 2.30 2.45 2.59 2.61 2.62 2.77 2.74
0.26 0.38 0.52 0.76 1.02 1.22 1.36 1.60 1.78 1.59 1.54 1.43 1.55 1.70 1.41 1.15 1.17 1.20 1.18 1.23 1.26 1.31 1.43 1.59 1.69 1.84 1.85 1.82 1.87 1.84 1.95 2.05 2.23 2.31 2.20 2.21 2.30 2.24 2.17 2.12 2.05 2.06 2.11 2.20 2.38 2.36 2.46 2.45 2.42
0.37 0.46 0.56 0.71 0.83 1.12 1.49 1.68 1.46 1.65 1.68 1.61 1.51 1.51 1.37 1.04 0.96 1.06 0.99 1.01 1.08 1.14 1.25 1.41 1.70 1.86 1.81 1.66 1.72 1.82 1.80 1.88 1.98 2.03 1.97 2.07 2.19 2.32 2.29 2.22 2.18 2.04 1.98 2.07 2.18 2.05 2.19 2.19 2.19
0.31 0.46 0.56 0.74 0.82 0.92 1.19 1.45 1.06 1.21 1.20 1.16 1.21 1.08 1.00 0.93 0.76 0.87 0.92 0.87 0.92 0.97 1.08 1.26 1.49 1.66 1.68 1.64 1.67 1.79 1.85 1.82 1.79 1.76 1.79 1.86 1.91 1.98 2.00 1.96 1.97 1.96 2.05 2.15 2.06 2.00 2.04 2.12 2.09

GEFSSGP_prec_meanprecacc_300.txt.gz
Total_Precipitation_Accumulation
0.13 0.30 0.59 1.04 1.63 2.18 2.34 1.78 1.34 1.16 0.99 0.90 0.72 0.64 0.73 1.01 1.33 2.11 2.22 1.95 1.33 1.24 1.38 1.35 1.37 1.13 1.01 1.01 1.06 1.08 1.07 1.06 1.01 1.12 1.36 1.55 1.80 2.06 2.09 2.18 2.45 2.78 2.77 2.58 2.45 2.10 1.84 1.72 1.52
0.24 0.40 0.75 1.24 1.97 2.68 2.49 1.62 1.21 1.06 0.82 0.73 0.68 0.65 0.75 0.92 0.99 1.33 1.81 1.61 1.09 0.98 1.00 0.93 1.06 1.04 0.98 0.97 0.95 0.95 0.96 0.96 1.01 1.13 1.34 1.53 1.70 1.96 2.06 2.22 2.47 2.65 2.50 2.43 2.12 1.80 1.60 1.44 1.26
0.39 0.54 0.78 1.22 1.68 2.28 2.03 1.43 0.99 0.82 0.71 0.74 0.88 0.80 0.99 1.29 1.32 1.56 1.51 1.16 0.97 0.88 0.83 0.97 1.02 0.96 0.94 0.87 0.89 0.92 0.93 0.92 1.00 1.10 1.28 1.46 1.68 1.91 2.05 2.11 2.31 2.32 2.16 2.07 1.90 1.68 1.41 1.23 1.11
0.39 0.62 0.78 1.03 1.17 1.18 1.27 1.26 0.87 0.88 0.86 0.75 0.85 1.14 1.28 1.38 1.36 1.51 1.40 1.15 0.87 0.84 0.84 0.93 1.00 0.94 0.97 0.88 0.82 0.89 0.92 0.97 1.01 1.17 1.33 1.45 1.73 1.89 1.92 2.02 2.29 2.22 2.06 1.93 1.79 1.53 1.25 1.07 0.97
0.31 0.56 0.84 0.98 1.08 0.96 0.93 0.94 0.76 0.81 0.84 0.82 0.87 1.36 1.71 1.66 1.29 1.26 1.25 1.15 0.89 1.02 1.05 0.98 1.04 1.02 0.96 0.86 0.76 0.83 0.88 0.97 1.03 1.20 1.35 1.43 1.61 1.72 1.86 2.05 2.15 2.05 1.90 1.75 1.61 1.40 1.16 1.09 1.10
0.25 0.50 0.84 0.90 0.95 0.79 0.77 0.77 0.70 0.74 0.82 0.90 1.09 1.52 2.00 1.92 1.61 1.49 1.40 1.26 1.02 1.03 1.09 1.08 1.18 1.14 1.07 0.91 0.81 0.85 0.95 1.04 1.12 1.21 1.27 1.35 1.46 1.58 1.78 2.02 2.09 1.93 1.65 1.54 1.49 1.34 1.18 1.12 1.15
0.19 0.34 0.66 0.71 0.82 0.81 0.72 0.61 0.66 0.84 1.09 1.16 1.26 1.65 2.01 2.40 2.15 1.81 1.72 1.60 1.33 1.21 1.17 1.17 1.22 1.11 1.15 1.10 0.96 1.00 1.14 1.18 1.19 1.23 1.24 1.30 1.46 1.61 1.79 2.04 2.11 1.88 1.58 1.47 1.40 1.32 1.19 1.09 1.12
0.15 0.23 0.42 0.60 0.67 0.75 0.62 0.54 0.55 0.73 1.13 1.11 1.16 1.49 2.03 2.07 2.03 2.19 2.15 2.15 1.85 1.63 1.43 1.34 1.43 1.40 1.25 1.20 1.18 1.26 1.33 1.34 1.33 1.32 1.40 1.55 1.75 1.78 1.97 2.06 2.06 1.85 1.63 1.51 1.41 1.36 1.22 1.16 1.15
0.11 0.23 0.29 0.46 0.53 0.53 0.42 0.43 0.47 0.63 0.82 0.99 1.21 1.28 1.54 1.48 1.68 2.11 2.37 2.62 2.52 1.98 1.78 1.56 1.41 1.38 1.34 1.29 1.37 1.68 1.70 1.60 1.58 1.63 1.72 1.85 2.14 2.20 2.41 2.24 2.17 1.96 1.83 1.78 1.67 1.65 1.54 1.39 1.29
0.10 0.21 0.22 0.24 0.31 0.31 0.28 0.31 0.37 0.66 1.11 1.50 1.63 1.54 1.51 1.55 1.94 2.25 2.32 2.41 2.56 2.14 1.81 1.73 1.61 1.46 1.38 1.25 1.42 1.89 1.76 1.70 1.85 2.02 1.97 2.22 2.68 2.93 2.58 2.61 2.63 2.56 2.50 2.34 2.33 2.38 1.99 1.60 1.63
0.06 0.10 0.15 0.18 0.21 0.21 0.25 0.30 0.35 0.61 1.20 1.58 1.72 1.73 1.77 1.76 2.14 2.51 2.64 2.48 2.50 2.32 1.97 1.87 1.77 1.69 1.69 1.80 1.64 1.82 1.95 2.07 2.15 2.16 2.25 2.50 2.62 2.79 2.91 2.99 3.03 3.13 2.95 2.68 2.88 2.84 2.19 2.17 2.57
0.03 0.05 0.09 0.14 0.18 0.21 0.22 0.26 0.45 0.64 1.02 1.33 1.37 1.77 2.01 1.97 2.32 2.58 2.70 2.84 2.71 2.57 2.26 2.04 1.91 1.91 1.99 1.95 1.93 1.92 2.00 2.07 2.26 2.42 2.41 2.73 3.18 3.28 3.40 3.39 3.20 3.32 3.29 3.42 3.34 3.37 2.90 2.90 2.69
0.03 0.04 0.08 0.11 0.16 0.19 0.23 0.28 0.34 0.66 0.84 1.08 1.29 1.67 1.91 1.97 2.35 2.68 2.97 3.08 3.03 2.73 2.42 2.37 2.09 2.03 2.09 2.27 2.39 2.15 2.43 2.46 2.50 2.73 2.90 3.05 3.41 3.49 3.58 3.53 3.49 3.18 3.23 3.44 3.74 3.59 3.79 3.77 3.33
0.03 0.05 0.08 0.11 0.13 0.18 0.33 0.43 0.44 0.81 0.87 1.02 1.28 1.72 1.83 1.87 2.13 2.16 2.55 2.91 3.00 2.71 2.54 2.48 2.34 2.38 2.47 2.53 2.66 2.75 2.94 3.07 2.99 3.00 3.13 3.23 3.49 3.85 3.89 3.84 3.75 3.35 3.20 3.50 3.82 3.80 4.32 4.21 4.02
0.05 0.10 0.15 0.17 0.20 0.27 0.38 0.64 0.69 0.90 0.97 1.21 1.27 1.47 1.64 1.67 1.84 2.08 2.37 2.70 2.77 2.52 2.60 2.73 2.84 3.08 3.19 3.17 3.17 3.14 3.30 3.37 3.46 3.75 3.83 3.92 3.88 4.03 3.91 3.89 3.71 3.58 3.48 3.64 3.71 3.83 4.27 4.04 4.01
0.08 0.19 0.30 0.32 0.30 0.34 0.54 1.13 1.03 1.06 1.05 1.13 1.16 1.34 1.44 1.53 1.75 2.08 2.24 2.53 2.72 2.59 2.66 2.89 2.99 3.39 3.58 3.66 3.77 3.70 3.70 3.72 3.97 4.19 4.39 4.38 4.21 3.99 4.08 3.83 3.63 3.69 3.63 3.83 4.13 4.13 4.23 4.38 4.32
0.16 0.23 0.33 0.39 0.27 0.28 0.50 0.94 0.89 0.97 1.17 1.08 1.07 1.15 1.22 1.32 1.49 1.71 1.99 2.34 2.68 2.93 3.18 3.52 3.62 3.57 3.67 3.90 4.08 3.88 3.93 3.92 3.92 4.04 4.32 4.25 3.93 3.76 4.13 3.99 3.98 3.88 4.08 3.98 3.63 4.24 4.48 4.48 4.38
0.13 0.21 0.29 0.34 0.31 0.28 0.43 0.65 0.81 0.91 1.03 1.12 1.12 1.21 1.32 1.48 1.73 1.94 2.29 2.53 2.81 3.30 3.69 3.92 3.94 4.18 4.48 4.70 4.61 4.40 4.12 3.95 3.81 3.84 4.03 3.94 3.87 3.78 4.08 3.87 3.85 4.00 4.37 4.41 4.27 4.57 4.50 4.34 4.40
0.12 0.21 0.27 0.29 0.35 0.39 0.47 0.55 0.85 1.09 1.20 1.34 1.52 1.75 1.93 2.13 2.20 2.40 2.81 3.08 3.28 3.40 3.65 3.92 4.29 4.68 4.81 4.64 4.60 4.60 4.43 4.22 3.81 3.65 3.77 3.80 3.57 3.61 3.99 3.71 4.10 4.12 4.30 4.42 4.37 4.60 4.50 4.26 4.36
0.14 0.23 0.30 0.35 0.38 0.39 0.55 0.66 0.89 1.33 1.49 1.45 1.51 1.54 1.58 2.02 2.24 2.48 2.82 3.00 2.98 3.17 3.45 3.84 4.29 4.63 4.55 4.68 4.93 4.94 4.78 4.19 3.85 3.74 3.74 3.59 3.41 3.35 3.46 4.01 3.98 4.08 4.30 4.35 4.30 4.36 4.11 3.81 4.18
0.17 0.20 0.26 0.33 0.46 0.45 0.58 1.01 1.17 1.45 1.60 1.47 1.42 1.44 1.39 1.59 1.91 2.08 2.29 2.50 2.72 3.13 3.57 3.91 4.23 4.37 4.41 4.65 4.82 4.57 4.42 4.00 3.88 3.87 3.77 3.56 3.45 3.40 3.53 3.80 3.90 4.01 3.90 4.11 4.30 4.10 4.02 3.90 3.95
0.18 0.17 0.19 0.28 0.46 0.61 0.69 1.34 1.60 1.79 1.67 1.40 1.41 1.47 1.57 1.68 1.76 1.90 1.97 2.30 2.69 3.10 3.69 4.13 4.15 4.23 4.12 4.30 4.47 4.33 4.01 3.77 3.64 3.63 3.44 3.33 3.24 3.19 3.31 3.49 3.70 3.84 3.73 3.89 3.73 3.82 3.99 4.04 3.85
0.14 0.14 0.17 0.26 0.39 0.62 0.75 1.16 1.62 1.71 1.62 1.32 1.23 1.43 1.66 1.63 1.68 1.91 1.89 2.11 2.39 2.81 3.23 3.67 4.03 4.10 3.94 3.92 4.03 4.17 3.97 3.67 3.43 3.29 3.25 3.21 3.20 3.02 3.00 3.22 3.42 3.55 3.43 3.41 3.62 3.98 3.92 3.86 3.74
0.11 0.15 0.25 0.38 0.60 1.00 0.79 0.90 1.32 1.56 1.47 1.23 1.24 1.36 1.53 1.69 1.68 1.84 2.11 2.18 2.34 2.60 2.97 3.27 3.50 3.50 3.46 3.44 3.50 3.59 3.65 3.60 3.35 3.16 3.21 3.18 3.05 2.91 2.84 2.95 3.25 3.34 3.27 3.24 3.38 3.50 3.56 3.58 3.70
0.13 0.26 0.68 1.09 1.38 1.20 0.81 0.88 1.24 1.20 1.04 0.97 1.06 1.31 1.55 1.82 1.83 1.86 2.05 2.18 2.28 2.39 2.58 2.74 2.82 2.87 2.86 2.90 2.88 2.88 3.01 3.08 2.97 2.89 2.97 3.00 2.89 2.78 2.78 2.79 2.93 2.86 2.86 2.96 3.21 3.25 3.19 3.22 3.33
0.17 0.30 0.72 0.97 1.12 1.05 0.95 1.16 1.24 1.00 0.86 0.89 0.97 1.15 1.43 1.61 1.65 1.75 1.83 1.77 1.79 1.85 1.99 2.15 2.24 2.27 2.24 2.34 2.45 2.45 2.65 2.68 2.69 2.80 2.70 2.74 2.68 2.67 2.64 2.57 2.53 2.46 2.48 2.54 2.92 3.01 2.94 3.03 3.07
0.24 0.32 0.35 0.56 0.70 1.08 1.28 1.36 1.24 0.94 1.08 1.08 1.18 1.23 1.24 1.31 1.35 1.36 1.39 1.44 1.55 1.60 1.68 1.80 1.90 1.92 1.86 1.95 2.12 2.17 2.24 2.38 2.48 2.57 2.47 2.35 2.38 2.28 2.37 2.33 2.24 2.21 2.32 2.47 2.62 2.65 2.65 2.80 2.77
0.26 0.39 0.53 0.77 1.03 1.22 1.37 1.61 1.78 1.60 1.56 1.44 1.57 1.71 1.42 1.15 1.18 1.21 1.19 1.23 1.26 1.32 1.45 1.61 1.71 1.87 1.88 1.86 1.91 1.87 1.97 2.08 2.26 2.33 2.21 2.23 2.32 2.26 2.18 2.12 2.06 2.07 2.12 2.20 2.40 2.38 2.48 2.48 2.45
0.37 0.46 0.56 0.72 0.83 1.12 1.49 1.68 1.46 1.66 1.69 1.62 1.52 1.53 1.38 1.04 0.96 1.06 1.00 1.02 1.08 1.15 1.27 1.43 1.71 1.89 1.85 1.70 1.76 1.86 1.84 1.91 2.01 2.06 1.98 2.09 2.20 2.33 2.29 2.23 2.18 2.04 1.98 2.07 2.18 2.06 2.20 2.21 2.21
0.32 0.46 0.56 0.74 0.83 0.93 1.19 1.45 1.06 1.22 1.20 1.17 1.22 1.09 1.01 0.94 0.76 0.88 0.93 0.88 0.93 0.98 1.09 1.28 1.50 1.69 1.73 1.68 1.70 1.82 1.90 1.87 1.83 1.79 1.82 1.89 1.92 1.99 2.01 1.97 1.97 1.97 2.06 2.17 2.08 2.02 2.06 2.14 2.11